Voltar ao catálogo

YAOGAN-36 02B

AtivoMilitarVLEO
NORAD 54043·PAYLOAD·🇨🇳 China

Lançado Oct 14, 2022 de Xichang Satellite Launch Center

Loading…

Próximas Passagens (próximas 24 horas)

TLE

AtualizadoSource: Space-Track

Época: Sep 14, 2026, 10:16 UTC

1 54043U 22133B   26257.42796162  .00008577  00000-0  25336-3 0  9995
2 54043  34.9956 260.0780 0004889 201.1692 158.8825 15.34174634218553

Acompanhe YAOGAN-36 02B em tempo real com AllMySat

Download on the App Store